FALCON 9 DEB (48698 NORAD) Tracking and Keplerian Element Data

This shows tracking and keplerian element data for the satellite.

Feedback or suggestion? Click here.




ElementValue
Catalog48698
NameFALCON 9 DEB
Epoch Orbit382
Epoch Day170.55077723
Epoch Year2021
RAAN302.5458
Inclination53.0471
Eccentricity0.0017287
Argument of Perigee295.2452
Mean Anonmoly64.6791
Mean Motion16.15118574
Decay Rate0.00521288
L11 48698U 21044BN 21170.55077723 .00521288 16374-3 37075-3 0 9998
L22 48698 53.0471 302.5458 0017287 295.2452 64.6791 16.15118574 3823

Live tracking and technical data element details for FALCON 9 DEB (NORAD 48698). FALCON 9 DEB can be tracked NOW for your location showing map with azimuth and elevation plus other details from your city location.

Track the satellite on the map from your city or location and see movement details for azimuth, elevation, latitude, longitude, range, height, and movement on the map or in text.







IsCatalogInMostPopularTable: catalog: 48698, numindb: 4
Update: records affected: 1



GetName: 48698 FALCON 9 DEB

Hit Count: updated at: Mon, 21 Jun 2021 04:31:54 GMT